Weather Search – Historical Data

Quick picks

Today Yesterday Last 7 days Last 30 days This month Last month Last year (same date) All of last year

Custom search

Database contains data from 2013-07-07 to 2026-09-03.

Thursday September 3, 2026

94 measurements (5-min interval)

Max temperature
10,7 °C
00:00
Min temperature
9,2 °C
07:45
Avg temperature
10,0 °C
Total rainfall
1,3 mm
Max wind gust
3,6 m/s
WSW · 00:00
Avg wind
0,5 m/s
Avg humidity
95 %
Avg pressure
1 008 hPa
Max UV index
0,0
00:00
Max solar radiation
40 W/m²
07:45
Avg radiation (daytime)
19 W/m²

Charts

Temperature and dew point
Wind and gusts
Wind rose · prevailing: ENE
Rainfall
Humidity
Air pressure
UV and solar radiation

Detailed data

TimeTemp °CDew °C Humid %Wind m/sGust m/s Dir °Rain mmPress. hPa UVSolar W/m²
00:00 10,79,7 940,9 3,6225 0,001 008,4 0,00
00:05 10,69,8 950,4 2,7203 0,001 008,4 0,00
00:10 10,69,6 940,9 3,6180 0,001 008,4 0,00
00:15 10,69,8 950,4 2,2180 0,001 008,5 0,00
00:20 10,59,7 950,4 2,7180 0,001 008,5 0,00
00:25 10,59,7 950,9 2,2203 0,001 008,5 0,00
00:30 10,59,7 950,4 2,2158 0,001 008,4 0,00
00:35 10,49,7 951,3 3,6158 0,001 008,4 0,00
00:40 10,49,7 950,9 3,6203 0,001 008,4 0,00
00:45 10,49,7 950,9 3,1203 0,001 008,4 0,00
00:50 10,49,6 950,4 2,7225 0,251 008,4 0,00
00:55 10,49,7 950,9 3,1225 0,251 008,4 0,00
01:00 10,49,7 950,9 2,7270 0,001 008,4 0,00
01:05 10,49,6 951,3 2,7225 0,001 008,4 0,00
01:10 10,39,6 950,9 2,2248 0,001 008,4 0,00
01:15 10,39,6 950,4 1,8248 0,001 008,4 0,00
01:20 10,39,6 950,9 2,2225 0,001 008,4 0,00
01:25 10,39,5 950,9 2,2225 0,001 008,4 0,00
01:30 10,39,5 950,4 1,3225 0,251 008,4 0,00
01:35 10,39,5 950,4 1,3225 0,001 008,4 0,00
01:40 10,39,6 950,0 0,0 0,001 008,4 0,00
01:45 10,39,6 950,0 0,0 0,001 008,3 0,00
01:50 10,49,6 950,0 0,0 0,001 008,3 0,00
01:55 10,39,6 950,0 0,0 0,001 008,3 0,00
02:00 10,39,5 950,0 0,0 0,001 008,3 0,00
02:05 10,39,5 950,0 0,0 0,001 008,3 0,00
02:10 10,39,6 950,0 0,0 0,001 008,3 0,00
02:15 10,39,6 950,0 0,0 0,001 008,2 0,00
02:20 10,39,6 950,0 0,0 0,001 008,2 0,00
02:25 10,49,6 950,0 0,9 0,001 008,2 0,00
02:30 10,49,6 950,0 0,0 0,001 008,2 0,00
02:35 10,49,6 950,0 0,0 0,001 008,2 0,00
02:40 10,49,6 950,0 0,4 0,001 008,2 0,00
02:45 10,49,6 950,9 2,7203 0,001 008,0 0,00
02:50 10,39,6 950,4 1,8158 0,251 008,0 0,00
02:55 10,29,6 960,4 1,3158 0,001 008,0 0,00
03:00 10,19,5 960,4 2,2225 0,001 007,9 0,00
03:05 10,09,2 950,4 2,2180 0,001 007,9 0,00
03:10 9,99,1 950,4 1,3180 0,001 007,9 0,00
03:15 9,89,2 960,4 1,8180 0,001 007,8 0,00
03:20 9,89,2 960,0 1,3 0,001 007,8 0,00
03:25 9,89,2 960,0 0,0 0,001 007,8 0,00
03:30 9,99,3 960,0 0,0 0,001 007,7 0,00
03:35 9,99,3 960,0 1,3 0,001 007,7 0,00
03:40 9,99,3 960,0 0,9 0,001 007,7 0,00
03:45 10,09,4 960,0 0,9 0,001 007,6 0,00
03:50 9,99,3 960,0 1,3 0,001 007,6 0,00
03:55 9,99,3 960,0 0,9 0,001 007,6 0,00
04:00 9,99,3 960,4 1,8180 0,001 007,5 0,00
04:05 9,99,3 960,9 1,8180 0,001 007,5 0,00
04:10 9,99,3 960,9 1,8180 0,001 007,5 0,00
04:15 9,99,3 960,9 1,8180 0,001 007,5 0,00
04:20 9,99,3 960,9 1,3180 0,001 007,5 0,00
04:25 9,99,3 960,9 1,3180 0,001 007,5 0,00
04:30 9,99,3 960,9 1,3180 0,001 007,3 0,00
04:35 10,09,4 960,0 0,9 0,001 007,3 0,00
04:40 10,09,4 960,4 1,3180 0,001 007,3 0,00
04:45 9,89,2 960,0 0,0 0,001 007,3 0,00
04:50 9,99,3 960,0 0,9 0,001 007,3 0,00
04:55 9,99,2 950,0 0,0 0,001 007,3 0,00
05:00 9,99,2 950,4 1,3180 0,001 007,3 0,00
05:05 9,89,1 950,4 1,3180 0,001 007,3 0,00
05:10 9,89,1 950,9 1,3180 0,001 007,3 0,00
05:15 9,89,0 950,4 1,3180 0,251 007,1 0,00
05:20 9,79,0 951,3 2,268 0,001 007,1 0,00
05:25 9,78,9 951,3 2,268 0,001 007,1 0,00
05:30 9,78,9 950,9 1,868 0,001 006,9 0,00
05:35 9,78,9 950,9 1,868 0,001 006,9 0,00
05:40 9,68,8 950,9 1,868 0,001 006,9 0,00
05:45 9,78,9 950,9 1,868 0,001 006,8 0,00
05:50 9,78,9 950,4 1,368 0,001 006,8 0,00
05:55 9,78,9 950,9 1,868 0,001 006,8 0,00
06:00 9,78,9 950,9 1,868 0,001 006,8 0,00
06:05 9,78,9 950,9 1,868 0,001 006,8 0,00
06:10 9,78,9 950,9 1,868 0,001 006,8 0,00
06:15 9,68,8 950,4 1,868 0,001 006,8 0,00
06:20 9,68,7 940,4 1,368 0,001 006,8 0,00
06:25 9,68,7 940,4 1,368 0,001 006,8 0,00
06:30 9,78,7 940,0 0,9 0,001 006,8 0,00
06:35 9,78,8 940,4 1,368 0,001 006,8 0,02
06:40 9,78,8 940,0 1,3 0,001 006,8 0,05
06:45 9,88,7 930,4 1,868 0,001 006,7 0,05
06:50 9,78,6 930,4 2,268 0,001 006,7 0,08
06:55 9,78,5 920,9 2,268 0,001 006,7 0,011
07:00 9,78,4 920,9 1,845 0,001 006,7 0,015
07:05 9,68,4 920,9 1,845 0,001 006,7 0,021
07:10 9,68,4 920,9 1,845 0,001 006,7 0,023
07:15 9,68,3 920,9 1,845 0,001 006,7 0,025
07:20 9,58,3 920,4 2,245 0,001 006,7 0,026
07:25 9,48,2 921,3 2,745 0,001 006,7 0,025
07:30 9,38,1 920,4 1,823 0,001 006,5 0,026
07:35 9,38,1 920,9 1,823 0,001 006,5 0,027
07:40 9,38,0 920,9 2,223 0,001 006,5 0,033
07:45 9,28,0 921,8 2,723 0,001 006,3 0,040